Location: Ku?niki
(51.4449°N, 17.8974°E)
Time: 14:40:04
(UTC+00:00)

NOSS 2-2 (D) - Pass Details

Date: 18 September 2020
Orbit: 462 x 1746 km, 63.3° (Epoch: 14 October)

Event Time Altitude Azimuth Distance (km) Brightness Sun altitude
Rises 19:22:17 0° 238° (WSW) 2,487 7.0 -22.4°
Reaches altitude 10° 19:24:18 10° 244° (WSW) 1,641 6.1 -22.6°
Maximum altitude 19:27:46 53° 322° (NW) 644 3.9 -23.1°
Drops below altitude 10° 19:31:55 10° 40° (NE) 1,956 6.1 -23.6°
Enters shadow 19:32:06 - 41° (NE) 2,033 6.2 -23.6°
